Monett, MO

3:35 AM CDT on October 17, 2019 (GMT -0500)
Monett

Weather History for KHFJ - September, 2019

Change the Weather History Date:

Tuesday, September 17, 2019

  Actual Average (KJLN) Record (KJLN)
Temperature  
Mean Temperature 80 °F -  
Max Temperature 91 °F 78 °F 95 °F (1953)
Min Temperature 68 °F 59 °F 41 °F (1981)
Cooling Degree Days 14    
Growing Degree Days 30 (Base 50)    
Moisture  
Dew Point 65 °F    
Average Humidity 66    
Maximum Humidity 94    
Minimum Humidity 36    
Precipitation  
Precipitation 0.00 in - - ()
Sea Level Pressure  
Sea Level Pressure 30.05 in    
Wind  
Wind Speed 6 mph ()    
Max Wind Speed 14 mph    
Max Gust Speed 20 mph    
Visibility 7.8 miles    
Events      
Averages and records for this station are not official NWS values.
T = Trace of Precipitation, MM = Missing Value Source: Averaged Metar Reports

Daily Weather History Graph

Daily Weather History Graph

Search for Another Location

Airport or City:

Astronomy

Sep. 17, 2019 Rise Set
Actual Time 6:59 AM CDT 7:20 PM CDT
Civil Twilight 6:33 AM CDT 7:46 PM CDT
Nautical Twilight 6:03 AM CDT 8:17 PM CDT
Astronomical Twilight 5:32 AM CDT 8:48 PM CDT
Moon 9:28 PM CDT 10:01 AM CDT
Length of Visible Light 13h 13m
Length of Day
12h 21m
Waning Gibbous, 89% of the Moon is Illuminated
Sep 17
Waning Gibbous
Sep 21
Last Quarter
Sep 28
New
Oct 5
First Quarter
Oct 13
Full

Hourly Weather History & Observations

Time (CDT) Temp. Heat Index Dew Point Humidity Pressure Visibility Wind Dir Wind Speed Gust Speed Precip Events Conditions
12:15 AM 71.6 °F - 68.0 °F 88% 30.06 in 5.0 mi ESE 5.8 mph - N/A   Haze
12:35 AM 71.6 °F - 66.2 °F 83% 30.06 in 4.0 mi ESE 5.8 mph - N/A   Haze
12:55 AM 71.6 °F - 66.2 °F 83% 30.06 in 5.0 mi ESE 5.8 mph - N/A   Haze
1:15 AM 69.8 °F - 66.2 °F 88% 30.06 in 4.0 mi SE 4.6 mph - N/A   Clear
1:35 AM 71.6 °F - 64.4 °F 78% 30.06 in 4.0 mi ESE 5.8 mph - N/A   Haze
1:55 AM 71.6 °F - 64.4 °F 78% 30.07 in 3.0 mi SE 4.6 mph - N/A   Haze
2:15 AM 69.8 °F - 64.4 °F 83% 30.07 in 5.0 mi ESE 5.8 mph - N/A   Haze
2:35 AM 71.6 °F - 64.4 °F 78% 30.06 in 5.0 mi ESE 6.9 mph - N/A   Haze
2:55 AM 69.8 °F - 64.4 °F 83% 30.06 in 10.0 mi ESE 5.8 mph - N/A   Clear
3:15 AM 69.8 °F - 64.4 °F 83% 30.06 in 10.0 mi SE 5.8 mph - N/A   Clear
3:35 AM 69.8 °F - 64.4 °F 83% 30.06 in 10.0 mi SE 6.9 mph - N/A   Clear
3:55 AM 69.8 °F - 64.4 °F 83% 30.06 in 5.0 mi ESE 6.9 mph - N/A   Haze
4:15 AM 68.0 °F - 64.4 °F 88% 30.06 in 5.0 mi ESE 5.8 mph - N/A   Clear
4:35 AM 68.0 °F - 64.4 °F 88% 30.06 in 4.0 mi ESE 5.8 mph - N/A   Clear
4:55 AM 68.0 °F - 64.4 °F 88% 30.07 in 4.0 mi ESE 6.9 mph - N/A   Clear
5:15 AM 68.0 °F - 64.4 °F 88% 30.07 in 5.0 mi ESE 5.8 mph - N/A   Clear
5:35 AM 68.0 °F - 64.4 °F 88% 30.07 in 3.0 mi ESE 5.8 mph - N/A   Clear
5:55 AM 68.0 °F - 64.4 °F 88% 30.08 in 3.0 mi ESE 6.9 mph - N/A   Clear
6:15 AM 68.0 °F - 64.4 °F 88% 30.08 in 4.0 mi ESE 5.8 mph - N/A   Clear
6:35 AM 68.0 °F - 64.4 °F 88% 30.08 in 4.0 mi ESE 5.8 mph - N/A   Clear
6:55 AM 68.0 °F - 64.4 °F 88% 30.09 in 4.0 mi SE 5.8 mph - N/A   Clear
7:35 AM 68.0 °F - 64.4 °F 88% 30.10 in 2.5 mi ESE 5.8 mph - N/A   Clear
7:55 AM 68.0 °F - 66.2 °F 94% 30.10 in 3.0 mi ESE 5.8 mph - N/A   Clear
8:15 AM 69.8 °F - 66.2 °F 88% 30.10 in 1.8 mi ESE 6.9 mph - N/A   Mist
8:35 AM 71.6 °F - 68.0 °F 88% 30.10 in 2.0 mi ESE 5.8 mph - N/A   Haze
8:55 AM 73.4 °F - 68.0 °F 83% 30.10 in 1.2 mi SE 6.9 mph - N/A   Haze
9:15 AM 77.0 °F - 69.8 °F 78% 30.10 in 3.0 mi SE 6.9 mph - N/A   Haze
9:35 AM 78.8 °F - 69.8 °F 74% 30.10 in 10.0 mi SSE 5.8 mph - N/A   Clear
10:15 AM 82.4 °F 85.4 °F 68.0 °F 62% 30.10 in 10.0 mi SSE 9.2 mph - N/A   Clear
10:35 AM 84.2 °F 87.3 °F 68.0 °F 58% 30.11 in 10.0 mi South 6.9 mph - N/A   Clear
10:55 AM 86.0 °F 89.4 °F 68.0 °F 55% 30.11 in 10.0 mi South 9.2 mph - N/A   Clear
11:15 AM 87.8 °F 90.4 °F 66.2 °F 49% 30.11 in 10.0 mi SSW 10.4 mph - N/A   Clear
11:35 AM 87.8 °F 91.4 °F 68.0 °F 52% 30.10 in 10.0 mi South 8.1 mph - N/A   Clear
11:55 AM 87.8 °F 91.4 °F 68.0 °F 52% 30.10 in 10.0 mi South 6.9 mph - N/A   Clear
12:15 PM 87.8 °F 90.4 °F 66.2 °F 49% 30.09 in 10.0 mi SSW 8.1 mph - N/A   Scattered Clouds
12:35 PM 87.8 °F 89.4 °F 64.4 °F 46% 30.08 in 10.0 mi SSW 5.8 mph - N/A   Scattered Clouds
12:55 PM 87.8 °F 89.4 °F 64.4 °F 46% 30.08 in 10.0 mi South 8.1 mph - N/A   Scattered Clouds
1:15 PM 89.6 °F 91.1 °F 64.4 °F 43% 30.07 in 10.0 mi SSE 11.5 mph - N/A   Scattered Clouds
1:35 PM 89.6 °F 91.1 °F 64.4 °F 43% 30.07 in 10.0 mi South 5.8 mph - N/A   Scattered Clouds
1:55 PM 89.6 °F 91.1 °F 64.4 °F 43% 30.06 in 10.0 mi South 6.9 mph - N/A   Scattered Clouds
2:15 PM 89.6 °F 91.1 °F 64.4 °F 43% 30.05 in 10.0 mi SW 9.2 mph - N/A   Scattered Clouds
2:35 PM 87.8 °F 88.5 °F 62.6 °F 43% 30.04 in 10.0 mi South 5.8 mph - N/A   Scattered Clouds
2:55 PM 89.6 °F 90.1 °F 62.6 °F 40% 30.03 in 10.0 mi SSE 13.8 mph - N/A   Clear
3:15 PM 89.6 °F 89.5 °F 60.8 °F 38% 30.03 in 10.0 mi South 8.1 mph 16.1 mph N/A   Clear
3:35 PM 91.4 °F 92.1 °F 62.6 °F 38% 30.02 in 10.0 mi SSE 12.7 mph 19.6 mph N/A   Scattered Clouds
3:55 PM 91.4 °F 91.4 °F 60.8 °F 36% 30.02 in 10.0 mi SSE 6.9 mph - N/A   Scattered Clouds
4:15 PM 91.4 °F 91.4 °F 60.8 °F 36% 30.02 in 10.0 mi SSE 10.4 mph - N/A   Scattered Clouds
4:35 PM 91.4 °F 92.1 °F 62.6 °F 38% 30.01 in 10.0 mi SSW 8.1 mph - N/A   Scattered Clouds
4:55 PM 91.4 °F 92.1 °F 62.6 °F 38% 30.01 in 10.0 mi South 8.1 mph - N/A   Scattered Clouds
5:15 PM 89.6 °F 90.1 °F 62.6 °F 40% 30.01 in 10.0 mi SSW 9.2 mph - N/A   Clear
5:35 PM 89.6 °F 91.1 °F 64.4 °F 43% 30.00 in 10.0 mi SSW 10.4 mph - N/A   Clear
5:55 PM 87.8 °F 89.4 °F 64.4 °F 46% 30.00 in 10.0 mi SSW 9.2 mph - N/A   Clear
6:15 PM 87.8 °F 89.4 °F 64.4 °F 46% 30.00 in 10.0 mi South 5.8 mph - N/A   Clear
6:35 PM 86.0 °F 87.3 °F 64.4 °F 48% 30.00 in 10.0 mi South 4.6 mph - N/A   Clear
6:55 PM 84.2 °F 86.6 °F 66.2 °F 55% 30.00 in 10.0 mi South 3.5 mph - N/A   Clear
7:15 PM 82.4 °F 85.4 °F 68.0 °F 62% 30.00 in 10.0 mi SSE 3.5 mph - N/A   Clear
7:55 PM 80.6 °F 82.7 °F 66.2 °F 61% 30.00 in 10.0 mi SSE 4.6 mph - N/A   Clear
8:15 PM 78.8 °F - 66.2 °F 65% 30.00 in 10.0 mi SE 4.6 mph - N/A   Clear
8:35 PM 77.0 °F - 66.2 °F 69% 30.01 in 10.0 mi SE 4.6 mph - N/A   Clear
8:55 PM 77.0 °F - 66.2 °F 69% 30.01 in 10.0 mi ESE 4.6 mph - N/A   Clear
9:15 PM 77.0 °F - 66.2 °F 69% 30.02 in 10.0 mi ESE 3.5 mph - N/A   Clear
9:35 PM 77.0 °F - 64.4 °F 65% 30.02 in 10.0 mi ESE 3.5 mph - N/A   Clear
9:55 PM 77.0 °F - 64.4 °F 65% 30.02 in 10.0 mi ESE 4.6 mph - N/A   Clear
10:15 PM 75.2 °F - 64.4 °F 69% 30.02 in 10.0 mi ESE 5.8 mph - N/A   Clear
10:35 PM 75.2 °F - 64.4 °F 69% 30.02 in 10.0 mi ESE 5.8 mph - N/A   Clear
10:55 PM 73.4 °F - 64.4 °F 73% 30.02 in 10.0 mi ESE 6.9 mph - N/A   Clear
11:15 PM 73.4 °F - 64.4 °F 73% 30.02 in 10.0 mi ESE 6.9 mph - N/A   Clear
11:35 PM 73.4 °F - 64.4 °F 73% 30.02 in 10.0 mi ESE 6.9 mph - N/A   Clear
11:55 PM 73.4 °F - 64.4 °F 73% 30.02 in 10.0 mi ESE 6.9 mph - N/A   Clear